Weather History for KFNB - September, 2014

Change the Weather History Date:

Monday, September 22, 2014

  Actual Average Record
Temperature  
Mean Temperature 60 °F -  
Max Temperature 75 °F 75 °F 95 °F (1956)
Min Temperature 46 °F 49 °F 37 °F (1983)
Degree Days  
Heating Degree Days 4    
Growing Degree Days 10 (Base 50)    
Moisture  
Dew Point 49 °F    
Average Humidity 70    
Maximum Humidity 97    
Minimum Humidity 38    
Precipitation  
Precipitation 0.00 in - - ()
Sea Level Pressure  
Sea Level Pressure 30.25 in    
Wind  
Wind Speed 3 mph (South)    
Max Wind Speed 7 mph    
Max Gust Speed -    
Visibility 10 miles    
Events      
Averages and records for this station are not official NWS values.
T = Trace of Precipitation, MM = Missing Value Source: NWS Daily Summary

Daily Weather History Graph

Daily Weather History Graph

Search for Another Location

Airport or City:

Trip Planner

Search our weather history database for the weather conditions in past years. The results will help you decide how hot, cold, wet, or windy it might be!

Date:

Astronomy

Sep. 22, 2014 Rise Set
Actual Time 7:09 AM CDT 7:19 PM CDT
Civil Twilight 6:42 AM CDT 7:46 PM CDT
Nautical Twilight 6:11 AM CDT 8:18 PM CDT
Astronomical Twilight 5:38 AM CDT 8:50 PM CDT
Moon 5:39 AM CDT (9/22) 6:27 PM CDT (9/22)
Length of Visible Light 13h 03m
Length of Day
12h 09m
Waning Crescent, 2% of the Moon is Illuminated
Sep 22
Waning Crescent
Sep 24
New
Oct 1
First Quarter
Oct 8
Full
Oct 15
Last Quarter

Hourly Weather History & Observations

Time (CDT) Temp. Dew Point Humidity Pressure Visibility Wind Dir Wind Speed Gust Speed Precip Events Conditions
12:53 AM 52.0 °F 48.9 °F 89% 30.26 in 10.0 mi WNW 4.6 mph - N/A   Clear
1:53 AM 48.9 °F 46.9 °F 93% 30.27 in 10.0 mi Calm Calm - N/A   Clear
2:53 AM 50.0 °F 48.0 °F 93% 30.27 in 10.0 mi West 4.6 mph - N/A   Clear
3:53 AM 48.9 °F 46.9 °F 93% 30.27 in 10.0 mi Calm Calm - N/A   Clear
4:53 AM 48.0 °F 46.0 °F 93% 30.28 in 10.0 mi NW 3.5 mph - N/A   Clear
5:53 AM 48.0 °F 46.0 °F 93% 30.30 in 10.0 mi Calm Calm - N/A   Clear
6:53 AM 46.9 °F 46.0 °F 97% 30.31 in 10.0 mi NW 3.5 mph - N/A   Clear
7:53 AM 46.9 °F 46.0 °F 97% 30.32 in 10.0 mi Calm Calm - N/A   Clear
8:53 AM 54.0 °F 51.1 °F 90% 30.32 in 10.0 mi Calm Calm - N/A   Clear
9:53 AM 61.0 °F 53.1 °F 75% 30.31 in 10.0 mi ESE 5.8 mph - N/A   Clear
10:53 AM 66.0 °F 52.0 °F 60% 30.32 in 10.0 mi SE 5.8 mph - N/A   Clear
11:53 AM 69.1 °F 50.0 °F 51% 30.30 in 10.0 mi ESE 4.6 mph - N/A   Clear
12:53 PM 71.1 °F 48.9 °F 45% 30.28 in 10.0 mi Calm Calm - N/A   Clear
1:53 PM 73.0 °F 50.0 °F 44% 30.27 in 10.0 mi Variable 4.6 mph - N/A   Clear
2:53 PM 75.0 °F 48.9 °F 40% 30.24 in 10.0 mi Calm Calm - N/A   Clear
3:53 PM 75.0 °F 48.0 °F 38% 30.21 in 10.0 mi Calm Calm - N/A   Clear
4:53 PM 73.0 °F 46.9 °F 39% 30.20 in 10.0 mi South 4.6 mph - N/A   Clear
5:53 PM 73.0 °F 48.9 °F 42% 30.19 in 10.0 mi SSE 4.6 mph - N/A   Clear
6:53 PM 68.0 °F 51.1 °F 55% 30.19 in 10.0 mi SSW 4.6 mph - N/A   Clear
7:53 PM 66.0 °F 52.0 °F 60% 30.19 in 10.0 mi South 4.6 mph - N/A   Clear
8:53 PM 63.0 °F 52.0 °F 67% 30.19 in 10.0 mi SSE 5.8 mph - N/A   Clear
9:53 PM 62.1 °F 52.0 °F 70% 30.19 in 10.0 mi South 6.9 mph - N/A   Clear
10:53 PM 60.1 °F 52.0 °F 75% 30.19 in 10.0 mi South 5.8 mph - N/A   Clear
11:53 PM 55.9 °F 52.0 °F 87% 30.20 in 10.0 mi SSE 4.6 mph - N/A   Clear